Weather History for Mayport NS, FL

Change the Weather History Date:

Tuesday, July 16, 2013

  Actual Average Record
Temperature  
Mean Temperature 82 °F -  
Max Temperature 87 °F 87 °F 97 °F (2006)
Min Temperature 78 °F 73 °F 73 °F (1997)
Cooling Degree Days 18    
Growing Degree Days 32 (Base 50)    
Moisture  
Dew Point 75 °F    
Average Humidity 82    
Maximum Humidity 90    
Minimum Humidity 69    
Precipitation  
Precipitation 0.00 in - - ()
Sea Level Pressure  
Sea Level Pressure 30.20 in    
Wind  
Wind Speed 10 mph (ENE)    
Max Wind Speed 13 mph    
Max Gust Speed -    
Visibility 10 miles    
Events      
Averages and records for this station are not official NWS values.
T = Trace of Precipitation, MM = Missing Value Source: NWS Daily Summary

Daily Weather History Graph

Daily Weather History Graph

Search for Another Location

Airport:

Trip Planner

Search our weather history database for the weather conditions in past years. The results will help you decide how hot, cold, wet, or windy it might be!

Date:

Astronomy

Jul. 16, 2013 Rise Set
Actual Time 6:34 AM EDT 8:28 PM EDT
Civil Twilight 6:07 AM EDT 8:55 PM EDT
Nautical Twilight 5:35 AM EDT 9:28 PM EDT
Astronomical Twilight 5:00 AM EDT 10:02 PM EDT
Moon 2:18 PM EDT (7/16) 12:51 AM EDT (7/16)
Length of Visible Light 14h 47m
Length of Day
13h 54m
First Quarter, 56% of the Moon is Illuminated
Jul 16
First Quarter
Jul 22
Full
Jul 29
Last Quarter
Aug 6
New
Aug 14
First Quarter

Hourly Weather History & Observations

Time (EDT) Temp. Heat Index Dew Point Humidity Pressure Visibility Wind Dir Wind Speed Gust Speed Precip Events Conditions
12:52 AM 79.0 °F - 75.0 °F 88% 30.18 in 10.0 mi ESE 11.5 mph - N/A   Mostly Cloudy
1:52 AM 78.1 °F - 73.9 °F 87% 30.17 in 10.0 mi East 8.1 mph - N/A   Scattered Clouds
2:52 AM 78.1 °F - 73.9 °F 87% 30.17 in 10.0 mi East 8.1 mph - N/A   Scattered Clouds
3:52 AM 78.1 °F - 75.0 °F 90% 30.17 in 10.0 mi East 6.9 mph - N/A   Partly Cloudy
4:52 AM 78.1 °F - 75.0 °F 90% 30.17 in 10.0 mi East 8.1 mph - N/A   Clear
5:52 AM 78.1 °F - 73.9 °F 87% 30.17 in 10.0 mi East 6.9 mph - N/A   Clear
6:01 AM 78.8 °F - 73.4 °F 83% 30.18 in 10.0 mi East 6.9 mph - N/A   Scattered Clouds
6:52 AM 78.1 °F - 73.9 °F 87% 30.18 in 10.0 mi East 5.8 mph - N/A   Scattered Clouds
7:52 AM 78.1 °F - 75.0 °F 90% 30.19 in 10.0 mi ENE 10.4 mph - N/A   Scattered Clouds
8:52 AM 80.1 °F 85.1 °F 75.0 °F 85% 30.21 in 10.0 mi ENE 12.7 mph - N/A   Scattered Clouds
9:52 AM 82.0 °F 88.6 °F 75.0 °F 79% 30.22 in 10.0 mi ENE 11.5 mph - N/A   Scattered Clouds
10:52 AM 82.9 °F 90.8 °F 75.9 °F 79% 30.22 in 10.0 mi NE 10.4 mph - N/A   Scattered Clouds
11:52 AM 84.0 °F 92.6 °F 75.9 °F 76% 30.22 in 10.0 mi ENE 12.7 mph - N/A   Scattered Clouds
12:52 PM 84.9 °F 94.1 °F 75.9 °F 74% 30.23 in 10.0 mi ENE 12.7 mph - N/A   Scattered Clouds
1:52 PM 87.1 °F 97.3 °F 75.9 °F 69% 30.22 in 10.0 mi ENE 10.4 mph - N/A   Scattered Clouds
2:52 PM 84.9 °F 93.3 °F 75.0 °F 72% 30.21 in 10.0 mi ENE 12.7 mph - N/A   Scattered Clouds
3:52 PM 84.9 °F 93.3 °F 75.0 °F 72% 30.20 in 10.0 mi ENE 12.7 mph - N/A   Scattered Clouds
4:52 PM 84.9 °F 93.3 °F 75.0 °F 72% 30.19 in 10.0 mi East 12.7 mph - N/A   Mostly Cloudy
5:52 PM 84.0 °F 91.9 °F 75.0 °F 74% 30.19 in 10.0 mi ENE 10.4 mph - N/A   Mostly Cloudy
6:52 PM 82.9 °F 90.2 °F 75.0 °F 77% 30.19 in 10.0 mi NE 11.5 mph - N/A   Scattered Clouds
7:52 PM 80.1 °F 85.1 °F 75.0 °F 85% 30.19 in 10.0 mi NE 8.1 mph - N/A   Mostly Cloudy
8:52 PM 79.0 °F - 75.9 °F 90% 30.20 in 10.0 mi ENE 6.9 mph - N/A   Mostly Cloudy
9:52 PM 79.0 °F - 75.9 °F 90% 30.21 in 10.0 mi ENE 8.1 mph - N/A   Mostly Cloudy
10:52 PM 79.0 °F - 75.0 °F 88% 30.21 in 10.0 mi ENE 8.1 mph - N/A   Mostly Cloudy
11:52 PM 78.1 °F - 75.0 °F 90% 30.21 in 10.0 mi NE 9.2 mph - N/A   Partly Cloudy